Temp
83 73 69 77 79 78 77 69 66 72 85 75 74 72 81 84 85 83 81 80 82 84 86 88 90 91 88 85 83 83 81 79 82 78 77 78 77 75 74 76 77 75 75 79
74 69 82 88 83 80 74 67 62 77 83 76 74 73 81 84 84 84 84 82 83 84 85 87 88 92 88 85 83 82 82 80 81 79 79 79 77 75 72 75 75 77 77 78
71 79 91 87 81 79 72 69 69 75 85 80 74 68 65 77 80 86 87 88 87 85 85 86 85 88 87 85 84 82 80 81 81 81 80 79 80 74 73 74 77 78 82 77
75 86 87 83 81 80 68 81 77 78 76 65 80 53 61 69 73 76 84 85 87 88 88 89 85 88 87 86 87 85 81 80 82 81 80 79 77 76 77 77 81 82 83 82
75 81 80 79 83 86 79 84 77 86 72 68 73 59 64 66 67 74 84 86 87 90 91 89 90 89 89 89 87 86 83 82 81 80 80 78 76 78 81 79 81 81 79 82
79 89 82 82 88 87 89 82 79 74 70 58 69 67 62 65 71 76 79 84 88 90 92 92 93 93 91 90 88 86 83 82 81 80 79 79 79 78 77 77 77 77 76 77
76 79 84 84 74 83 77 68 57 56 56 56 66 62 62 76 83 83 83 84 83 89 90 91 91 92 89 88 88 85 83 80 81 81 79 79 79 78 78 79 78 77 78 74
63 63 77 84 76 68 71 67 57 52 53 58 66 57 68 82 85 86 86 85 86 88 90 92 91 92 90 90 88 86 82 82 82 81 81 79 79 78 77 80 79 78 79 77
63 67 84 86 84 81 72 64 75 63 59 58 61 64 76 80 79 80 79 86 83 88 92 92 90 92 90 90 87 86 83 82 82 83 78 78 79 79 78 80 80 79 81 79
74 62 78 84 84 81 76 77 63 61 51 50 59 62 63 73 75 78 80 81 84 87 92 94 93 93 92 92 87 86 84 82 82 82 80 80 79 79 79 79 79 80 79 78
76 67 74 76 71 71 69 67 64 65 61 53 51 60 73 77 81 82 83 89 86 91 93 94 95 94 93 92 87 85 83 82 80 81 81 80 80 81 79 79 80 80 81 78
79 69 61 69 81 85 78 73 68 57 59 59 59 65 86 85 85 87 84 88 86 82 83 85 93 94 93 91 88 85 85 83 82 81 80 81 81 80 80 77 80 81 80 80
73 65 56 64 71 73 74 76 68 69 66 60 56 66 80 80 81 86 83 84 75 78 75 78 85 90 92 90 87 86 85 84 83 82 81 82 81 78 79 80 81 81 81 81
77 69 64 59 65 73 67 76 76 67 58 60 62 65 76 86 82 83 83 86 81 76 77 81 80 92 89 86 84 84 83 83 81 80 80 79 79 79 79 79 80 80 80 79
77 64 63 71 78 82 81 79 79 71 70 61 65 71 75 78 81 83 85 86 87 85 81 80 84 85 83 81 80 82 81 82 81 79 78 77 76 77 76 77 78 79 80 80
76 65 63 67 78 80 80 81 81 79 78 74 72 68 76 82 81 81 85 85 85 84 86 83 83 83 83 82 82 82 81 80 80 78 77 78 78 78 77 78 79 79 79 79
72 66 62 59 73 74 67 76 78 77 79 78 69 73 77 77 82 80 81 85 84 83 83 83 82 82 82 81 81 79 79 79 78 78 78 78 78 77 78 78 78 78 77 78
72 67 64 60 62 54 72 81 85 82 84 83 81 79 81 80 81 82 83 82 85 84 83 83 83 83 82 83 81 81 80 78 78 77 78 78 77 77 78 77 77 77 77 77
80 71 61 58 57 68 77 81 78 73 73 81 78 79 80 83 83 71 68 80 84 85 84 86 86 84 83 81 81 81 79 77 77 77 77 78 78 77 77 77 76 76 76 76
83 82 66 61 56 56 72 81 84 82 68 81 80 77 79 78 64 63 68 70 68 86 88 88 87 85 83 81 81 79 78 77 76 77 78 79 78 77 76 76 76 76 76 76
65 66 63 63 60 66 72 76 83 65 65 81 80 77 76 64 65 64 68 70 72 70 80 87 86 83 82 81 80 76 76 76 78 79 78 78 78 77 77 76 76 76 75 75
62 59 61 63 59 58 75 79 73 75 75 78 81 79 67 67 67 65 65 66 70 70 70 83 82 80 79 79 78 77 76 79 79 78 78 77 77 79 79 76 75 75 74 73
62 62 58 62 62 69 74 71 78 82 80 77 78 75 72 70 71 72 68 67 63 66 73 81 82 81 80 80 79 77 78 79 78 77 76 77 77 77 77 75 74 73 73 72
67 65 61 65 68 70 71 79 88 82 83 86 86 79 77 74 73 74 73 73 70 74 81 86 85 83 80 79 81 80 78 77 77 77 75 73 75 75 75 76 75 73 76 71
63 64 60 62 65 67 70 79 84 85 90 90 90 81 80 77 73 74 71 72 72 76 85 79 76 76 78 80 79 79 79 78 76 77 73 75 75 74 74 74 75 76 71 70
61 62 62 60 64 68 65 75 78 72 88 88 88 88 83 78 72 67 69 68 81 73 71 70 70 69 74 73 74 75 76 77 74 74 72 69 72 70 72 72 71 65 60 58
MSLP
1001.88 1002.65 1002.45 1002.55 1003.51 1004.38 1006.61 1007.89 1008.58 1007.51 1005.73 1005.98 1006.39 1007.51 1006.09 1006.50 1007.30 1007.80 1008.16 1008.62 1009.19 1009.64 1009.98 1010.27 1010.63 1011.27 1012.16 1012.79 1013.51 1013.90 1014.70 1015.06 1015.48 1015.85 1016.15 1016.30 1016.90 1017.80 1017.78 1017.54 1017.80 1018.60 1018.60 1017.78
1002.19 1002.38 1001.84 1001.78 1002.92 1003.48 1006.09 1007.02 1007.09 1005.61 1004.71 1004.43 1005.35 1006.82 1006.64 1006.38 1006.39 1006.54 1007.32 1007.90 1008.50 1009.13 1009.71 1010.18 1010.56 1011.11 1011.90 1012.52 1013.12 1013.77 1014.38 1014.90 1015.32 1015.49 1015.60 1015.95 1016.32 1017.23 1017.21 1017.03 1017.17 1017.76 1018.00 1017.17
1002.04 1001.61 1001.09 1001.11 1002.22 1003.06 1004.41 1005.24 1005.25 1003.80 1003.11 1003.72 1005.56 1007.76 1008.64 1006.50 1006.84 1006.53 1006.16 1006.57 1007.17 1008.12 1009.13 1009.75 1010.16 1010.79 1011.46 1012.18 1012.63 1013.35 1014.10 1014.38 1014.82 1015.05 1015.34 1015.80 1016.06 1016.73 1017.30 1017.07 1017.00 1016.80 1016.75 1017.21
1001.50 1000.78 1000.61 1000.56 1000.55 1001.44 1002.74 1004.22 1005.21 1004.71 1003.15 1003.51 1003.86 1007.69 1008.47 1007.18 1007.18 1006.92 1006.06 1006.32 1006.75 1007.28 1007.98 1008.78 1009.42 1010.13 1010.79 1011.42 1012.00 1012.66 1013.46 1014.06 1014.36 1014.76 1015.21 1015.34 1015.75 1016.35 1016.20 1016.28 1016.27 1016.36 1016.19 1016.51
1001.08 1000.35 1000.02 999.86 999.76 999.60 1000.47 1002.64 1002.82 1001.84 1002.38 1002.96 1003.74 1006.36 1007.44 1007.94 1007.45 1006.23 1005.79 1005.39 1005.77 1006.34 1006.85 1007.71 1008.23 1008.92 1009.78 1010.60 1011.41 1012.22 1013.04 1013.70 1014.15 1014.56 1014.96 1015.29 1015.59 1015.80 1015.79 1015.72 1015.84 1016.05 1016.10 1016.15
1000.66 999.61 999.54 998.86 998.84 999.06 999.61 1000.15 1000.65 1001.34 1002.46 1003.90 1003.66 1005.67 1007.26 1007.31 1007.78 1006.62 1005.03 1004.80 1005.18 1005.42 1005.85 1006.28 1007.08 1007.92 1008.67 1009.92 1010.85 1011.76 1012.52 1013.06 1013.62 1014.22 1014.70 1015.05 1015.37 1015.65 1016.06 1016.29 1016.10 1016.10 1016.31 1016.21
1000.84 999.97 999.28 998.61 998.88 999.26 999.68 1000.72 1001.84 1003.12 1003.75 1004.01 1003.94 1005.04 1005.01 1004.41 1003.09 1002.52 1003.40 1004.12 1004.44 1004.89 1004.92 1005.48 1006.13 1007.17 1008.11 1009.11 1010.11 1011.24 1012.10 1012.78 1013.15 1013.58 1014.12 1014.62 1015.01 1015.40 1015.95 1016.11 1016.31 1016.46 1016.43 1016.36
1001.34 1000.40 999.34 998.87 999.04 999.78 1000.28 1001.13 1002.30 1003.42 1004.24 1004.23 1004.12 1004.62 1003.63 1002.42 1002.79 1002.87 1003.25 1003.06 1003.68 1004.56 1004.32 1004.90 1005.48 1006.29 1007.34 1008.28 1009.34 1010.50 1011.53 1012.31 1012.86 1013.18 1013.60 1014.09 1014.65 1015.17 1015.61 1015.66 1015.70 1015.93 1015.91 1016.26
1000.93 1000.23 998.90 998.50 998.74 999.62 1000.38 1001.06 1001.31 1002.82 1003.22 1004.16 1004.33 1004.53 1002.97 1002.68 1003.04 1003.60 1003.55 1003.60 1004.22 1003.97 1004.00 1004.56 1004.93 1005.85 1006.85 1007.85 1008.81 1009.70 1010.85 1011.66 1012.27 1012.84 1013.31 1013.89 1014.46 1014.92 1015.27 1015.48 1015.52 1015.70 1015.74 1015.93
1000.11 1000.49 999.05 998.42 998.58 999.14 999.98 1000.41 1001.62 1002.63 1004.13 1004.66 1003.98 1003.54 1002.74 1002.16 1002.16 1003.02 1002.66 1003.58 1003.44 1003.54 1003.06 1003.68 1004.36 1005.15 1006.11 1007.31 1008.54 1009.48 1010.21 1010.91 1011.66 1012.39 1012.90 1013.76 1014.18 1014.62 1015.03 1015.36 1015.39 1015.49 1015.74 1015.86
999.51 1000.18 999.22 998.65 998.65 999.41 1000.01 1000.48 1001.59 1002.73 1003.41 1003.89 1003.46 1002.76 1000.33 1000.60 1000.59 1001.62 1003.48 1002.13 1002.18 1002.91 1002.66 1003.33 1003.90 1004.59 1005.24 1006.64 1008.05 1009.19 1010.07 1010.80 1011.47 1012.06 1012.90 1013.48 1013.94 1014.29 1014.60 1014.94 1015.28 1015.27 1015.48 1015.85
998.87 999.57 999.88 999.31 998.50 998.38 999.27 1000.05 1000.88 1002.58 1002.89 1002.68 1002.00 1000.92 999.22 999.23 999.51 1000.63 1000.42 1000.83 1001.32 1002.74 1004.80 1005.25 1004.02 1004.45 1004.86 1006.15 1007.54 1008.66 1009.60 1010.32 1010.92 1011.62 1012.53 1013.18 1013.46 1013.65 1014.17 1014.64 1015.03 1015.21 1015.14 1015.32
998.80 999.49 999.99 999.65 998.87 998.47 998.88 999.29 999.98 1000.69 1001.10 1001.86 1001.88 1000.46 999.00 998.86 999.17 998.89 999.72 1000.87 1002.18 1004.16 1005.94 1005.82 1004.30 1005.25 1004.84 1005.88 1007.23 1008.27 1009.06 1009.80 1010.62 1011.21 1012.06 1012.74 1013.09 1013.50 1013.98 1014.10 1014.39 1014.69 1014.82 1014.87
998.56 999.40 999.98 1000.08 999.32 998.57 998.70 998.66 999.03 999.92 1000.86 1000.95 1000.59 999.57 999.59 998.72 999.09 999.20 999.73 1000.98 1002.24 1004.06 1004.59 1003.93 1004.23 1004.90 1004.88 1005.83 1006.90 1007.89 1008.83 1009.58 1010.39 1011.14 1011.82 1012.52 1013.08 1013.21 1013.50 1013.76 1014.07 1014.28 1014.41 1014.46
998.42 999.45 999.62 999.32 998.88 998.22 997.42 997.68 998.11 998.85 999.13 999.91 1000.01 999.95 999.27 999.28 999.43 999.61 999.93 1000.44 1001.65 1002.74 1003.00 1003.80 1004.30 1004.84 1005.28 1006.29 1007.26 1008.02 1008.76 1009.55 1010.37 1011.20 1011.84 1012.48 1012.83 1013.02 1013.37 1013.68 1013.76 1013.88 1013.98 1014.09
998.65 999.47 999.81 999.84 999.02 998.14 997.50 997.00 997.13 997.47 997.95 998.23 998.85 999.51 999.03 998.19 998.92 999.95 1000.06 1000.68 1001.36 1002.01 1002.71 1003.37 1003.73 1004.61 1005.53 1006.42 1007.29 1008.05 1008.98 1009.73 1010.35 1011.12 1011.84 1012.26 1012.64 1013.00 1013.25 1013.42 1013.51 1013.56 1013.67 1013.77
999.26 999.82 1000.37 1000.38 999.30 998.44 997.86 996.44 996.33 996.59 996.88 997.36 998.00 998.81 999.11 999.10 999.64 1000.08 1000.37 1000.54 1001.16 1001.98 1002.65 1003.49 1004.18 1004.98 1005.81 1006.58 1007.31 1008.37 1009.18 1009.90 1010.61 1011.21 1011.81 1012.13 1012.38 1012.74 1013.00 1013.13 1013.18 1013.38 1013.30 1013.51
999.46 1000.02 1000.21 1000.81 1000.02 999.22 997.58 996.11 996.01 996.14 996.26 996.39 997.24 998.53 998.88 999.15 999.67 1000.73 1001.91 1001.15 1001.56 1002.03 1002.57 1003.39 1004.38 1005.52 1006.43 1006.96 1007.71 1008.44 1009.06 1009.84 1010.60 1011.13 1011.50 1011.88 1012.23 1012.49 1012.74 1012.98 1013.20 1013.22 1013.27 1013.45
999.16 999.59 1000.42 1000.79 1000.41 999.27 997.57 996.76 996.77 997.34 997.32 997.04 998.01 998.95 999.57 999.99 1000.89 1004.05 1004.66 1004.79 1002.94 1002.25 1002.88 1003.08 1004.12 1005.15 1005.96 1007.14 1007.76 1008.46 1009.25 1009.92 1010.48 1011.03 1011.32 1011.46 1012.00 1012.38 1012.64 1012.95 1013.16 1013.15 1013.27 1013.43
999.17 999.15 1000.35 1000.69 1000.54 999.79 998.14 997.04 996.38 996.35 998.12 997.85 998.21 999.30 1000.01 1000.74 1003.32 1005.68 1004.94 1006.52 1007.06 1004.13 1003.07 1003.68 1004.33 1005.28 1006.15 1006.89 1007.83 1008.82 1009.61 1010.03 1010.63 1010.92 1011.35 1011.47 1011.90 1012.32 1012.68 1012.98 1013.12 1013.13 1013.24 1013.34
1000.60 1000.10 1000.37 1000.60 1000.47 999.76 998.79 997.89 996.68 997.86 999.39 998.43 998.18 999.04 1000.27 1002.58 1004.84 1005.98 1004.49 1006.52 1006.52 1006.70 1006.74 1004.36 1005.04 1006.08 1006.72 1007.50 1008.17 1009.12 1009.71 1010.27 1010.48 1010.82 1011.20 1011.42 1011.74 1012.11 1012.40 1012.77 1012.96 1013.03 1013.19 1013.16
1001.63 1001.92 1001.33 1001.00 1000.92 1000.43 998.74 997.76 997.49 997.96 998.66 998.86 998.88 999.85 1002.15 1003.82 1005.48 1006.06 1006.92 1008.73 1008.42 1008.36 1009.39 1005.55 1006.12 1007.02 1007.31 1007.68 1008.54 1009.46 1009.89 1010.03 1010.28 1010.72 1011.33 1011.71 1011.87 1012.04 1012.31 1012.77 1012.84 1012.88 1013.08 1013.21
1002.49 1002.73 1003.12 1003.00 1003.16 1002.44 1001.15 998.53 998.01 997.41 997.54 999.17 999.04 1000.34 1001.30 1003.56 1004.36 1004.57 1003.91 1007.88 1008.75 1009.76 1009.31 1005.85 1006.42 1007.31 1007.34 1007.65 1008.43 1009.26 1009.38 1009.84 1010.46 1011.06 1011.53 1011.86 1011.94 1012.20 1012.40 1012.70 1012.78 1012.96 1012.91 1013.00
1002.68 1003.15 1003.36 1003.31 1003.36 1002.51 1002.52 998.98 997.03 997.09 998.37 998.60 998.50 999.80 1000.85 1001.74 1003.48 1003.79 1003.96 1004.96 1007.47 1007.49 1006.27 1005.71 1006.22 1007.35 1007.40 1007.77 1008.52 1009.14 1009.58 1009.87 1010.48 1010.92 1011.74 1012.05 1012.14 1012.21 1012.38 1012.44 1012.54 1012.78 1012.94 1012.98
1003.52 1003.97 1004.34 1004.41 1005.05 1004.55 1003.10 999.86 998.56 998.46 998.36 997.97 997.98 999.49 1000.48 1001.79 1003.42 1004.49 1005.19 1006.28 1006.67 1006.52 1005.91 1006.04 1007.00 1007.82 1007.89 1008.22 1008.53 1009.11 1009.72 1010.32 1010.78 1010.98 1011.57 1012.01 1012.18 1012.36 1012.51 1012.51 1012.47 1012.77 1012.88 1012.89
1004.59 1004.82 1004.60 1005.41 1005.70 1005.70 1003.68 1000.57 1001.19 1000.54 998.90 997.81 998.06 998.74 1000.66 1002.28 1004.47 1006.12 1007.08 1006.68 1006.10 1005.74 1006.06 1006.60 1007.60 1008.19 1008.72 1009.59 1010.14 1009.99 1010.03 1010.44 1011.28 1011.74 1011.89 1011.91 1012.29 1012.48 1012.60 1012.66 1012.72 1012.59 1012.88 1013.00
Wind_Speed
8 3 8 12 8 10 14 13 5 13 17 9 24 5 16 16 15 13 11 9 9 9 9 8 8 12 16 9 9 7 10 7 7 2 2 3 3 6 4 6 9 7 8 6
5 7 15 12 8 12 20 20 15 13 6 8 12 13 11 15 17 19 14 13 11 9 11 10 10 13 17 14 10 8 11 8 7 4 4 2 3 4 4 5 5 6 11 7
9 10 15 16 10 14 14 18 15 11 9 4 11 3 11 2 4 11 15 19 16 14 15 14 10 15 16 15 14 11 10 11 9 8 3 3 4 3 3 2 3 3 7 8
8 14 14 11 10 13 9 17 19 26 6 5 11 3 6 6 7 5 14 17 17 17 15 17 13 17 18 17 15 14 11 10 8 7 3 4 5 4 3 4 3 4 6 7
13 11 8 10 9 10 9 28 31 15 3 2 3 8 6 4 7 13 14 17 17 20 19 21 19 16 19 18 17 14 12 11 8 7 6 5 4 3 2 1 7 5 3 2
9 10 5 7 7 7 6 7 7 3 3 1 10 11 3 10 3 11 9 9 14 20 20 19 21 18 17 19 17 15 15 15 10 8 7 7 8 5 1 1 4 4 3 2
10 11 9 1 4 9 3 5 5 6 5 7 9 7 12 19 25 25 20 13 11 17 18 17 17 19 14 21 19 16 16 13 13 12 9 8 7 6 5 4 4 5 5 2
6 9 7 5 6 3 7 6 7 7 5 5 4 5 7 16 9 15 12 7 8 11 16 18 13 19 15 21 19 19 17 14 14 12 12 7 7 3 4 4 3 2 5 5
5 12 10 11 6 11 11 5 12 2 5 5 4 4 6 7 5 6 8 8 9 10 16 16 11 19 15 18 18 19 17 14 14 12 7 7 6 6 4 5 5 3 3 5
12 7 10 13 7 7 10 8 5 5 3 5 1 6 7 10 7 12 17 19 18 15 17 17 14 20 16 17 13 17 17 16 13 11 8 6 6 5 5 3 6 6 5 5
10 6 17 3 6 8 1 7 2 3 5 7 3 7 8 17 16 19 18 31 30 25 15 15 16 19 19 18 15 15 14 13 9 8 7 8 7 7 6 5 4 6 4 7
10 3 6 8 8 11 9 10 8 7 11 4 6 6 7 19 16 18 19 10 12 12 20 12 8 19 19 19 17 17 15 13 11 8 8 9 8 7 5 5 6 5 4 4
4 3 4 13 9 4 9 9 6 6 3 8 2 6 4 8 7 10 9 20 15 21 39 32 12 11 18 17 15 15 14 13 11 9 8 11 9 8 7 7 7 6 7 7
3 5 9 8 10 1 5 7 9 6 3 6 4 3 3 11 8 8 9 17 21 20 39 27 7 12 14 14 15 13 10 11 9 8 8 8 7 7 6 6 7 6 7 7
4 5 3 8 9 12 8 14 12 8 10 5 4 5 5 9 10 9 9 8 12 14 11 13 12 14 14 12 10 10 10 12 12 8 7 7 7 5 5 5 5 6 5 4
2 6 5 8 10 11 13 7 13 11 11 8 6 2 6 8 11 7 12 10 8 7 15 17 18 17 16 15 13 12 11 10 9 8 8 7 7 7 7 6 4 2 3 4
5 3 2 7 9 9 7 6 6 4 9 10 7 9 6 5 9 9 9 11 10 14 17 17 17 15 14 14 13 12 9 8 8 8 7 7 7 6 5 5 5 6 5 5
6 2 3 6 5 5 12 5 7 9 7 10 12 14 12 12 9 5 8 7 13 17 17 16 15 13 13 12 12 11 10 9 8 7 7 7 7 6 6 5 5 5 4 5
9 5 3 4 4 8 7 8 3 8 7 9 14 9 5 6 4 16 21 24 5 17 14 14 15 14 14 12 12 12 10 8 7 7 7 7 6 6 5 4 2 2 3 3
13 13 6 3 4 6 12 3 4 5 1 1 11 8 8 6 6 4 12 16 20 2 13 14 15 14 13 13 12 12 9 8 7 7 6 6 6 7 6 5 4 2 1 3
5 7 6 5 5 2 6 8 2 7 8 4 7 9 7 8 6 8 19 14 21 12 22 17 16 13 11 9 9 8 8 8 7 7 7 7 7 7 6 4 2 0 3 4
3 2 4 2 3 7 7 4 6 8 4 5 6 8 22 19 18 23 18 5 12 21 25 15 14 10 8 9 8 8 8 7 8 8 7 7 6 3 4 4 0 3 4 5
3 6 4 4 1 9 17 1 5 3 7 6 5 17 22 22 14 23 27 7 17 24 22 11 13 12 8 9 8 8 8 9 8 8 7 6 5 4 3 2 4 4 5 4
6 3 4 6 8 11 18 14 8 7 8 12 9 19 18 12 14 11 24 21 16 18 9 13 16 14 11 7 6 8 8 8 8 8 7 3 4 4 4 3 3 3 3 2
3 8 3 3 9 4 12 13 4 4 11 7 10 17 18 14 8 12 7 8 9 7 11 11 12 8 8 8 11 9 8 8 6 6 6 4 2 1 2 2 3 2 2 0
5 6 3 2 4 1 9 22 18 13 11 8 8 12 15 16 20 26 20 11 13 11 6 7 9 11 13 12 6 7 7 7 6 5 4 3 3 2 2 4 5 4 8 11
Wind_Direction
232 202 247 245 209 162 78 95 349 250 244 117 161 225 162 168 165 169 169 161 165 170 155 153 161 145 142 139 147 148 145 151 144 147 166 230 149 148 157 168 190 203 242 198
260 213 245 259 152 183 118 120 186 257 210 106 128 234 226 175 178 170 173 166 167 178 152 163 175 146 153 158 159 146 150 153 161 166 199 140 128 143 190 204 184 188 210 126
197 228 236 243 179 201 152 165 214 216 191 138 128 78 297 235 20 187 177 171 169 174 161 169 176 161 159 162 167 165 165 171 170 179 177 165 113 84 180 237 205 204 158 140
236 239 246 245 243 191 201 163 264 236 151 194 147 207 242 248 261 222 204 173 174 173 162 174 177 172 167 172 172 171 160 170 183 185 172 173 166 168 222 196 179 167 175 164
248 248 255 250 225 242 255 163 204 217 358 77 211 85 284 39 291 266 202 180 177 178 178 176 185 177 176 171 173 175 163 170 185 179 179 194 189 188 230 141 141 174 178 167
255 270 287 232 277 281 300 340 336 318 159 271 257 122 224 166 120 273 244 173 189 177 181 183 182 185 171 172 173 174 170 175 176 183 187 189 194 206 106 149 134 153 141 198
283 264 282 274 24 334 343 345 338 339 354 225 118 96 210 201 200 197 222 204 182 187 180 187 179 179 170 172 174 172 175 178 178 182 186 192 204 203 177 147 169 159 178 234
221 292 244 259 176 213 268 198 164 235 241 258 105 140 264 220 207 226 245 195 193 190 183 181 183 172 170 171 170 171 175 179 186 178 192 182 187 198 176 181 213 124 200 160
218 250 233 206 172 161 264 281 234 246 304 29 155 227 357 214 217 253 300 258 249 209 177 175 171 167 169 168 167 168 172 178 182 188 170 170 173 182 189 202 222 167 145 143
257 303 272 229 188 203 170 236 358 344 251 284 323 173 204 220 185 178 226 237 229 243 170 177 167 167 162 166 158 163 171 175 179 176 176 150 172 181 195 197 232 181 195 175
221 184 280 98 153 173 189 274 272 167 153 188 171 253 201 191 201 180 222 225 221 216 175 170 172 164 157 158 150 160 164 165 169 171 149 159 161 184 201 209 232 215 175 176
208 177 262 224 217 179 191 208 193 127 279 245 165 252 178 191 210 163 210 160 144 89 45 347 190 159 157 155 153 162 163 166 168 163 147 172 173 188 171 210 212 219 219 221
328 259 305 327 331 201 180 228 221 217 224 256 170 231 186 122 134 156 140 138 115 128 133 224 236 194 156 153 152 157 163 162 159 161 155 171 181 170 195 201 202 207 211 218
63 238 172 209 223 119 219 202 229 198 192 249 254 81 16 147 173 110 111 125 148 161 175 202 165 199 143 143 149 152 143 144 132 132 134 143 155 165 173 173 190 226 221 207
131 267 257 262 274 281 254 189 214 229 240 163 222 147 153 142 127 127 122 108 129 169 187 178 167 143 131 127 123 123 123 130 133 135 144 168 171 168 191 212 233 238 225 222
260 270 292 301 297 291 293 234 211 200 229 257 257 265 213 155 125 150 145 136 144 121 119 124 121 124 131 132 131 124 124 128 129 129 135 129 146 175 188 189 187 217 252 254
209 201 282 269 278 297 317 255 289 234 203 199 229 191 205 86 140 161 160 150 150 125 130 126 125 126 126 125 125 125 123 121 122 123 140 159 163 169 191 205 218 229 240 245
276 230 202 246 318 298 245 249 228 255 240 216 120 158 175 177 188 122 20 147 130 134 131 123 125 122 122 128 124 128 124 124 135 158 168 170 173 187 199 201 218 234 226 232
259 265 235 169 226 252 247 282 29 49 352 74 102 106 73 52 110 38 29 355 164 138 138 130 130 132 132 136 132 128 130 145 149 169 177 163 170 179 183 179 140 67 46 345
244 249 169 275 210 240 231 120 54 14 67 268 120 130 128 113 96 191 51 11 351 34 131 130 125 123 125 133 134 136 153 146 140 134 144 135 130 119 104 103 82 55 331 292
324 278 213 246 238 235 259 278 143 80 246 284 137 146 124 88 102 85 58 70 302 344 311 122 118 123 129 127 128 128 128 133 148 126 120 105 108 113 126 125 129 14 291 303
203 21 279 312 273 290 205 337 120 184 226 344 98 117 108 112 120 102 94 91 244 280 299 110 115 119 122 118 117 129 141 152 129 125 123 119 122 116 134 131 197 288 287 288
357 154 181 97 227 319 323 168 297 294 113 263 119 134 138 146 166 141 112 160 219 245 242 133 129 134 134 136 144 155 166 136 135 130 137 140 141 129 149 175 256 279 272 268
194 190 106 50 2 27 329 309 333 127 211 239 148 147 159 166 169 143 159 168 175 221 174 140 143 153 147 142 137 143 133 135 134 139 137 138 152 205 232 236 238 263 321 15
302 36 140 114 73 309 313 284 190 308 214 179 133 161 174 143 131 132 179 143 214 198 144 127 122 118 103 119 112 107 106 112 128 134 137 179 168 229 297 241 251 45 186 87
142 191 151 92 98 266 262 284 305 318 262 143 116 108 134 118 107 77 296 305 198 138 131 99 69 68 81 49 53 82 93 92 88 84 69 75 46 39 20 49 43 40 62 66